(532) Herculina
ephemeris date magn radius delta ra dec elong phase
Opposition6 Aug 202510.23.038 AU2.036 AU21h19m-27°16'168.9°3.7°
Today16 Sep 202511.03.093 AU2.321 AU20h51m-30°17'132.8°13.8°
(532) Herculina - 2025-09-16
astro.vanbuitenen.nl


 
-1 year
-1 month
-1 day
Now
+1 day
+1 month
+1 year

The interactive orbit chart above shows the body's path through the solar system and its position at the given date. Green and blue lines are shown perpendicular to the ecliptic plane: Green if the path is above the ecliptic plane, blue if it is below. (Left-click and drag to rotate the view; Right-click and drag to move the view; Use scroll wheel to zoom in our out.)

The orbital elements of Herculina are:

            e (Eccentricity)                : 0.1800323
            a (Semimajor axis)              : 2.7704091
            i (Inclination)                 : 16.29901
            Ω (Longitude of ascending node) : 107.41083
            ω (Argument of perihelion)      : 76.68608
            M (Mean anomaly)                : 93.72416
            Epoch                           : 2025 May 05

            L (Longitude of perihelion)     : 183.56048
            B (Latitude of perihelion)      : 15.84924
            P (Orbital period in years)     : 4.61            
        

The light curve chart below shows the estimated development of the minor planet's magnitude.


The all-sky chart below shows the path of the minor planet over the same period as the light curve. The current position is marked yellow.





The following chart shows the path of the minor planet in the next few days. The field of view is optimized for (~10x50) binoculars and finderscopes. A more printer-friendly version of the same chart can be found below.




Ephemerides:
Date       Time       RA (2000)    DEC (2000)    delta   radius  elong  phase   PA    magn
2025-09-16 00:00 UT   20 51 54.1   -30 17 05     2.321    3.093  132.8   13.8    62   11.0 
2025-09-16 21:51 UT   20 51 37.3   -30 17 56     2.331    3.094  131.8   14.0    63   11.0 
2025-09-17 00:00 UT   20 51 35.7   -30 18 01     2.332    3.094  131.8   14.0    63   11.0 
2025-09-18 00:00 UT   20 51 18.6   -30 18 47     2.344    3.095  130.8   14.2    63   11.0 
2025-09-19 00:00 UT   20 51 03.0   -30 19 24     2.356    3.096  129.8   14.4    64   11.0 
2025-09-20 00:00 UT   20 50 48.9   -30 19 52     2.368    3.098  128.8   14.6    64   11.1 
2025-09-21 00:00 UT   20 50 36.3   -30 20 12     2.380    3.099  127.8   14.8    64   11.1 
2025-09-22 00:00 UT   20 50 25.2   -30 20 22     2.393    3.100  126.8   15.0    65   11.1 
2025-09-23 00:00 UT   20 50 15.5   -30 20 24     2.405    3.101  125.8   15.2    65   11.1 
2025-09-24 00:00 UT   20 50 07.3   -30 20 18     2.418    3.103  124.9   15.4    65   11.1 
2025-09-25 00:00 UT   20 50 00.6   -30 20 04     2.431    3.104  123.9   15.6    66   11.2 
2025-09-26 00:00 UT   20 49 55.4   -30 19 41     2.444    3.105  122.9   15.7    66   11.2 
2025-09-27 00:00 UT   20 49 51.7   -30 19 11     2.457    3.106  122.0   15.9    66   11.2 
2025-09-28 00:00 UT   20 49 49.4   -30 18 32     2.470    3.108  121.0   16.0    67   11.2 
2025-09-29 00:00 UT   20 49 48.6   -30 17 46     2.483    3.109  120.1   16.2    67   11.2 
2025-09-30 00:00 UT   20 49 49.3   -30 16 53     2.497    3.110  119.1   16.3    67   11.3 
2025-10-01 00:00 UT   20 49 51.4   -30 15 52     2.510    3.111  118.2   16.5    67   11.3 
2025-10-02 00:00 UT   20 49 55.0   -30 14 44     2.524    3.112  117.2   16.6    68   11.3 
2025-10-03 00:00 UT   20 49 60.0   -30 13 29     2.538    3.114  116.3   16.7    68   11.3 
2025-10-04 00:00 UT   20 50 06.4   -30 12 07     2.552    3.115  115.4   16.9    68   11.3 
2025-10-05 00:00 UT   20 50 14.3   -30 10 38     2.566    3.116  114.5   17.0    68   11.3 
2025-10-06 00:00 UT   20 50 23.5   -30 09 03     2.580    3.117  113.5   17.1    69   11.4 
2025-10-07 00:00 UT   20 50 34.1   -30 07 21     2.594    3.118  112.6   17.2    69   11.4 
2025-10-08 00:00 UT   20 50 46.1   -30 05 32     2.608    3.120  111.7   17.3    69   11.4 
2025-10-09 00:00 UT   20 50 59.5   -30 03 38     2.623    3.121  110.8   17.4    69   11.4 
2025-10-10 00:00 UT   20 51 14.2   -30 01 37     2.637    3.122  109.9   17.5    70   11.4 
2025-10-11 00:00 UT   20 51 30.2   -29 59 30     2.652    3.123  109.0   17.6    70   11.4 
2025-10-12 00:00 UT   20 51 47.6   -29 57 17     2.666    3.124  108.1   17.7    70   11.4 
2025-10-13 00:00 UT   20 52 06.2   -29 54 58     2.681    3.125  107.2   17.8    70   11.5 
2025-10-14 00:00 UT   20 52 26.2   -29 52 34     2.696    3.127  106.4   17.8    70   11.5 
2025-10-15 00:00 UT   20 52 47.4   -29 50 03     2.710    3.128  105.5   17.9    71   11.5 
2025-10-16 00:00 UT   20 53 09.9   -29 47 27     2.725    3.129  104.6   18.0    71   11.5 


    Terminology:
            
    delta:  distance between minor planet and earth in AU
    radius: distance between minor planet and sun in AU
    magn:   magnitude (brightness) estimate    
    ra:     right ascension in hours (24h = 360deg)
    dec:    declination in degrees
    elong:  elongation in degrees (angle sun-earth-minor planet)    
    phase:  phase angle in degrees (angle sun-minor planet-earth)        
    AU:     Astronomical Unit (mean distance between earth and sun: 149597870.7 km
    

Orbital elements provided by the MPC (Minor Planet Center).
Calculations by a modified version of AAPlus, a C# implementation of the AA+ project by PJ Naughter from the algorithms presented in the book "Astronomical Algorithms" by Jean Meeus.
NGC2000 dso catalog and star labels from VizieR as provided by the Strasbourg astronomical Data Center.
Tycho2 catalog from the ESO archive.